Flag for Norway Weather past 2 weeks in Raufoss, Norway

Now
64 °F

Mild.


Feels Like: 64 °F
Forecast: 53 / 78 °F
Wind: 1 mph from North

Location: Lillehammer-Saetherengen

Current Time: Jul 1, 2015 at 8:40:10 AM

Latest Report: Jul 1, 2015 at 8:00 AM


Visibility: N/A

Pressure: 30.15 "Hg

Humidity: 57%

Dew point: 49 °F

Location of RaufossLocation

Historic Weather in Raufoss — Graph

°F

Raufoss temperature yesterday

Maximum temperature yesterday: 71 °F (at 6:00 PM)
Minimum temperature yesterday: 53 °F (at 4:00 AM)
Average temperature yesterday: 61 °F

Past Weeks' High & Low Weather Summary

 TemperatureHumidityPressure
High73 °F (Jun 27, 6:00 PM)95% (Jun 23, 4:00 AM)30.17 "Hg (Jun 23, 4:00 AM)
Low42 °F (Jun 17, 4:00 AM)21% (Jun 16, 7:00 PM)29.58 "Hg (Jun 18, 3:00 PM)
Average57 °F67%29.84 "Hg
* Reported Jun 16 7:00 AM — Jul 1 7:00 AM, Raufoss, Weather by CustomWeather, © 2015

Note: Actual official high and low records may vary slightly from our data, if they occured in-between our weather recording intervals... More about our weather records

Advertising

Raufoss weather history for previous 24 hours

 ConditionsComfort  
Time TempWeatherWind HumidityBarometerVisibility
7:00 AM
Wed, Jul 1
64 °FMild.No wind58%30.15 "HgN/A
6:00 AM56 °FCool.1 mph77%30.17 "HgN/A
5:00 AM56 °FCool.No wind74%30.15 "HgN/A
4:00 AM58 °FCool.1 mph75%30.14 "HgN/A
3:00 AM58 °FCool.No wind73%30.15 "HgN/A
2:00 AM59 °FCool.1 mph66%30.14 "HgN/A
1:00 AM60 °FCool.1 mph61%30.13 "HgN/A
12:00 AM61 °FCool.1 mph61%30.11 "HgN/A
11:00 PM
Tue, Jun 30
62 °FRefreshingly cool.1 mph59%30.10 "HgN/A
10:00 PM65 °FMild.1 mph48%30.09 "HgN/A
9:00 PM66 °FMild.2 mph48%30.07 "HgN/A
8:00 PM66 °FMild.1 mph50%30.06 "HgN/A
6:00 PM71 °FMild.2 mph33%30.05 "HgN/A
4:00 PM70 °FMild.1 mph35%30.06 "HgN/A
3:00 PM69 °FMild.1 mph38%30.07 "HgN/A
2:00 PM66 °FMild.1 mph41%30.07 "HgN/A
1:00 PM66 °FMild.2 mph42%30.06 "HgN/A
12:00 PM65 °FMild.2 mph47%30.06 "HgN/A
11:00 AM64 °FMild.2 mph47%30.06 "HgN/A
10:00 AM61 °FRefreshingly cool.2 mph57%30.07 "HgN/A
9:00 AM58 °FCool.1 mph69%30.06 "HgN/A
8:00 AM55 °FCool.1 mph81%30.05 "HgN/A
Weather by CustomWeather, © 2015

See weather overviewHow to use our weather pages